Regional Weather Roundup
Issued by NWS

Home | Current Version | Previous Version | Text Only | Print | Product List | Glossary On
Versions: 1 2 3 4 5 6 7 8 9 10 11 12 13 14 15 16 17 18 19 20 21 22 23 24 25 26 27 28 29 30 31 32 33 34 35 36 37 38 39 40 41 42 43 44 45 46 47 48 49 50
000
ASUS43 KMPX 280010
RWRMN
WEATHER ROUNDUP FOR MINNESOTA
NATIONAL WEATHER SERVICE TWIN CITIES/CHANHASSEN MN
700 PM CDT WED MAY 27 2015


NOTE: "FAIR" INDICATES FEW OR NO CLOUDS BELOW 12,000 FEET WITH NO
SIGNIFICANT WEATHER AND/OR OBSTRUCTIONS TO VISIBILITY. N/A MEANS
CURRENT SKY AND/OR WEATHER CONDITIONS ARE NOT AVAILABLE.

MNZ060>063-068>070-280100-
   Twin Cities Metro

CITY           SKY/WX    TMP DP  RH WIND       PRES   REMARKS
TWIN CITIES    MOSUNNY   82  52  35 W7        29.95F
6HR MIN TEMP:  76; 6HR MAX TEMP:  84;

ST PAUL        SUNNY     82  52  35 W9        29.95S
CRYSTAL        SUNNY     83  50  31 W9        29.94S
BLAINE         MOSUNNY   82  50  32 W6        29.95F
LAKEVILLE      SUNNY     79  55  44 CALM      29.97S
EDEN PRAIRIE   SUNNY     82  52  35 W6        29.95S
6HR MIN TEMP:  76; 6HR MAX TEMP:  83;

SOUTH ST PAUL  SUNNY     82  49  31 W7        29.95S
LAKE ELMO      FAIR      79  55  44 NW5       29.97S
$$
MNZ001>005-007-008-013>017-022>024-027-028-280100-
   Northwest Minnesota

CITY           SKY/WX    TMP DP  RH WIND       PRES   REMARKS
BEMIDJI        SUNNY     76  51  40 NW8       29.97R
HALLOCK        SUNNY     72  43  35 N6        29.97R
ROSEAU         SUNNY     72  48  43 E10       29.97S
WARROAD        SUNNY     66  52  59 E9        29.99S
THIEF RVR FALL SUNNY     75  50  41 N5        29.97S
CROOKSTON      MOSUNNY   77  48  36 CALM      29.96S
FOSSTON        SUNNY     75  52  43 CALM      29.97R
DETROIT LAKES  SUNNY     77  46  33 CALM      29.98S
MOORHEAD       MOSUNNY   81  48  32 NE5       29.95S
PARK RAPIDS    SUNNY     80  47  31 NW9       29.96R
MAHNOMEN       FAIR      77  48  35 NW7       29.96S
$$
MNZ006-009>011-018-025>026-280100-
   North Central Minnesota

CITY           SKY/WX    TMP DP  RH WIND       PRES   REMARKS
BAUDETTE       SUNNY     70  46  42 N7        29.98S
FLAG ISLAND    SUNNY     66  45  45 NE9       29.98S
INTL FALLS     SUNNY     72  45  37 N8        29.97R
6HR MIN TEMP:  72; 6HR MAX TEMP:  78;

WASKISH        SUNNY     72  52  49 N7        29.97S
BIG FORK       SUNNY     75  48  38 N5        29.96R
LONGVILLE      SUNNY     79  46  31 CALM      29.96R
GRAND RAPIDS   SUNNY     77  48  36 NW10      29.96R
CRANE LAKE     SUNNY     72  45  37 NW8       29.97R
ORR            SUNNY     73  43  33 NW5       29.94R
COOK           SUNNY     75  46  35 NW8       29.95R
WALKER         FAIR      77  51  38 N5        29.95R
$$
MNZ012-019>021-037-280100-
   Northeast Minnesota

CITY           SKY/WX    TMP DP  RH WIND       PRES   REMARKS
DULUTH         MOSUNNY   79  49  34 N5        29.94R
6HR MIN TEMP:  75; 6HR MAX TEMP:  83; 6HR PCP:  0.01;

HIBBING        SUNNY     78  48  34 NW9       29.94R
EVELETH        SUNNY     77  45  31 NW10G17   29.95S
DULUTH HARBOR  SUNNY     72  50  46 N6        29.91S
TWO HARBORS    MOSUNNY   79  55  44 W3        29.90R
SILVER BAY     MOSUNNY   79  46  31 NW5       29.89R
GRAND MARAIS     N/A     54  44  69 NE7       29.91R
G MARAIS ARPRT MOSUNNY   73  45  35 NW6       29.95R
$$
MNZ029>031-032-039>041-046>048-054>057-064-280100-
   West Central Minnesota

CITY           SKY/WX    TMP DP  RH WIND       PRES   REMARKS
FERGUS FALLS   SUNNY     79  50  36 NE3       29.94S
WHEATON        MOSUNNY   79  46  31 SE3       29.96S
MORRIS         MOSUNNY   82  48  30 SE3       29.95F
ALEXANDRIA     SUNNY     80  49  33 W3        29.98S
ELBOW LAKE     FAIR      80  48  33 CALM      29.96S
WADENA         MOSUNNY   77  54  44 NW6       29.97R
GLENWOOD       SUNNY     81  52  36 CALM      29.99R
APPLETON       MOSUNNY   81  50  34 CALM      29.95F
BENSON         MOSUNNY   81  45  28 CALM      29.96S
ORTONVILLE     MOSUNNY   82  46  28 E8        29.95F
MADISON        PTSUNNY   82  45  26 CALM      29.95F
WILLMAR          N/A     84  46  26 W5        29.98S
$$
MNZ033>034-036-042>043-049>051-058-059-280100-
   Central Minnesota

CITY           SKY/WX    TMP DP  RH WIND       PRES   REMARKS
ST CLOUD       SUNNY     80  58  46 NW3       29.95S
6HR MIN TEMP:  78; 6HR MAX TEMP:  84;

SAUK CENTRE    FAIR      79  54  41 NW7       29.97S
PAYNESVILLE    SUNNY     76  50  39 W6        29.97S
AITKIN         SUNNY     82  43  24 CALM      29.94R
PINE RIVER     MOSUNNY   81  52  36 NW3       29.98S
BRAINERD       MOSUNNY   76  52  43 S8        29.96R
STAPLES        SUNNY     79  45  29 NW8       29.97R
LONG PRAIRIE   FAIR      79  48  34 W6        29.98R
LITTLE FALLS   MOSUNNY   77  45  31 E5        29.97R
LITCHFIELD     SUNNY     82  46  28 W5        29.97R
BUFFALO        SUNNY     82  48  31 W3        29.97S
MAPLE LAKE     SUNNY     82  53  36 CALM      29.97S
$$
MNZ037-044-045-052-053-280100-
   East Central Minnesota

CITY           SKY/WX    TMP DP  RH WIND       PRES   REMARKS
PRINCETON      SUNNY     82  52  34 W3        29.96S
MORA           MOSUNNY   72  52  49 CALM      29.97S
CAMBRIDGE      MOSUNNY   82  59  44 CALM      29.94S
RUSH CITY      MOSUNNY   75  59  57 CALM      29.95S
MOOSE LAKE     PTSUNNY   77  54  44 NE8       29.93R
HINCKLEY       FAIR      79  54  41 W8        29.95R
CLOQUET        SUNNY     79  39  24 W9        29.95R
MCGREGOR       SUNNY     79  46  31 NW6       29.95S
$$
MNZ071>073-080-081-089-090-097-098-280100-
   Southwest Minnesota

CITY           SKY/WX    TMP DP  RH WIND       PRES   REMARKS
MONTEVIDEO     MOSUNNY   84  48  28 CALM      29.96F
GRANITE FALLS  MOSUNNY   82  48  30 CALM      29.97F
CANBY          PTSUNNY   82  45  26 CALM      29.97F
MARSHALL       MOSUNNY   82  46  28 CALM      29.96F
REDWOOD FALLS  MOSUNNY   83  47  28 CALM      29.96S
OLIVIA         MOSUNNY   79  45  29 NW5       29.96S
PIPESTONE      PTSUNNY   79  45  29 SW9       30.00F
WINDOM         MOSUNNY   82  45  26 CALM      29.99F
WORTHINGTON    CLOUDY    81  48  32 CALM      30.00F
JACKSON        MOSUNNY   81  50  34 S5        30.01S
TRACY          MOSUNNY   84  43  24 CALM      29.98F
SLAYTON        MOSUNNY   81  41  24 CALM      30.01S
$$
MNZ065>067-074>077-082>085-091>093-280100-
   South Central Minnesota

CITY           SKY/WX    TMP DP  RH WIND       PRES   REMARKS
MANKATO        SUNNY     82  52  34 W5        29.98S
NEW ULM        SUNNY     81  52  36 SW5       29.97F
ST JAMES       SUNNY     84  50  30 CALM      29.99S
FAIRMONT       MOSUNNY   84  43  23 CALM      29.99F
GLENCOE        MOSUNNY   82  53  36 SW3       29.96S
FARIBAULT      SUNNY     81  55  41 SW3       29.99S
OWATONNA       SUNNY     81  52  36 W6        29.99S
WASECA         SUNNY     79  50  36 W5        30.01S
ALBERT LEA     SUNNY     81  48  32 SW3       30.00S
$$
MNZ078>079-086>088-094>096-280100-
   Southeast Minnesota

CITY           SKY/WX    TMP DP  RH WIND       PRES   REMARKS
ROCHESTER      SUNNY     78  58  49 W7        30.01S
6HR MIN TEMP:  74; 6HR MAX TEMP:  79;

RED WING       SUNNY     82  52  34 W8        29.96R
STANTON        SUNNY     81  53  38 W6        29.96S
DODGE CENTER   SUNNY     81  54  39 W7        30.00F
WINONA         SUNNY     79  55  44 W3        29.98S
AUSTIN         SUNNY     79  54  41 SW7       30.00F
PRESTON        SUNNY     76  58  52 W5        30.02S
$$
ABBREVIATIONS USED IN REMARKS
   TC - TEMPERATURES IN CELSIUS
  WCI - WIND CHILL INDEX
   HX - HEAT INDEX
  VSB - VISIBILITY
$$



USA.gov is the U.S. government's official web portal to all federal, state and local government web resources and services.